Regional Weather Roundup
Issued by NWS

Home | Current Version | Previous Version | Text Only | Print | Product List | Glossary Off
Versions: 1 2 3 4 5 6 7 8 9 10 11 12 13 14 15 16 17 18 19 20 21 22 23 24 25 26 27 28 29 30 31 32 33 34 35 36 37 38 39 40 41 42 43 44 45 46 47 48 49 50

587
ASUS45 KABQ 030801
RWRNM
NEW MEXICO REGIONAL WEATHER ROUNDUP
NATIONAL WEATHER SERVICE ALBUQUERQUE NM
100 AM MST SAT DEC 03 2016

NOTE: "FAIR" MEANS FEW OR NO CLOUDS BELOW 12,000 FEET AGL WITH NO
       SIGNIFICANT WEATHER OR OBSTRUCTIONS TO VISION.

      THIS PRODUCT IS RELEASED AS TWO VERSIONS.  ONE VERSION NEAR
      THE TOP OF THE HOUR CONTAINING PRELIMINARY DATA FROM ALBUQUERQUE
      AND OTHER STATIONS.  A FINAL VERSION WITH ADDITIONAL DATA IS
      ISSUED ABOUT 10 MINUTES AFTER THE HOUR.

NMZ501-503-504-510>518-030900-
NORTHWEST PLATEAU/NORTHCENTRAL MOUNTAINS

CITY           SKY/WX    TMP DP  RH WIND       PRES   REMARKS
FARMINGTON     NOT AVBL
LOS ALAMOS     CLOUDY    29  26  86 SE5       30.10S WCI  24
SANTA FE       NOT AVBL
TAOS           FAIR      19  10  68 N10       30.11R WCI   8
ANGEL FIRE     CLOUDY    16  13  90 SE3       30.11F

$$
NMZ402-403-502-505>509-030900-
WESTCENTRAL MOUNTAINS/SOUTHWEST MOUNTAINS

CITY           SKY/WX    TMP DP  RH WIND       PRES   REMARKS
GALLUP         NOT AVBL
SILVER CITY    RAIN      39  37  90 E7        29.95R WCI  34

$$
NMZ407-409-411-412-030900-
SOUTHERN DESERTS

CITY           SKY/WX    TMP DP  RH WIND       PRES   REMARKS
DEMING         NOT AVBL
LAS CRUCES     CLOUDY    46  35  67 N3        29.93S
HOLLOMAN AFB   MOCLDY    40  30  66 W6        29.98S
T OR C         CLOUDY    38  26  62 N24G36    29.98S WCI  27

$$
NMZ519>523-030900-
CENTRAL VALLEYS/CENTRAL HIGHLANDS

CITY           SKY/WX    TMP DP  RH WIND       PRES   REMARKS
ALBUQUERQUE    CLOUDY    33  28  81 E22G35    30.11R WCI  21
DOUBLE EAGLE   LGT SNOW  31  28  88 SE5       30.11R WCI  26
CLINES CORNERS LGT SNOW  24  21  88 E16       30.12R FOG     WCI  11
BELEN          NOT AVBL
SOCORRO        CLOUDY    35  27  71 N12G21    30.09S WCI  27

$$
NMZ524>526-539-540-030900-
SOUTHCENTRAL MOUNTAINS

CITY           SKY/WX    TMP DP  RH WIND       PRES   REMARKS
RUIDOSO        CLOUDY    27  25  93 CALM      30.07F FOG

$$
NMZ527>531-030900-
NORTHEAST HIGHLANDS/NORTHEAST PLAINS

CITY           SKY/WX    TMP DP  RH WIND       PRES   REMARKS
RATON          NOT AVBL
CLAYTON        FLURRIES  29  29 100 NE7       30.20R WCI  22

$$
NMZ532>537-030900-
EASTCENTRAL PLAINS

CITY           SKY/WX    TMP DP  RH WIND       PRES   REMARKS
TUCUMCARI      FLURRIES  33  31  92 N10       30.17F WCI  25
CANNON AFB     LGT RAIN  34  34 100 NE16      30.11F WCI  24
CLOVIS AIRPORT CLOUDY    34  30  86 N15       30.12S WCI  24

$$
NMZ028-029-538-030900-
SOUTHEAST PLAINS

CITY           SKY/WX    TMP DP  RH WIND       PRES   REMARKS
ROSWELL        LGT RAIN  38  33  82 N13       30.11  WCI  30
ARTESIA        RAIN      39  39 100 N16       30.10S WCI  30
CARLSBAD       NOT AVBL
HOBBS          LGT RAIN  37  37 100 N14       30.06S WCI  29


$$




USA.gov is the U.S. government's official web portal to all federal, state and local government web resources and services.